Location: Nashville
(36.1660°N, 86.7840°W)
Time: 04:52:11
(UTC-05:00)

AO-92 - Pass Details

Date: 22 May 2022
Orbit: 472 x 481 km, 97.4° (Epoch: 26 June)

Event Time Altitude Azimuth Distance (km) Brightness Sun altitude
Exits shadow 23:08:21 25° 335° (NNW) 1,008 ? -28.9°
Drops below altitude 10° 23:09:56 10° 342° (NNW) 1,648 ? -29.1°
Sets 23:12:01 0° 345° (NNW) 2,529 ? -29.2°
